Вернуться в каталог

HULIANWANG DIGUI-103

АктивенСвязьLEO
NORAD 66419·PAYLOAD·🇨🇳 China

Запущен Nov 10, 2025 с Wenchang Space Launch Site

Loading…

Ближайшие Пролёты (ближайшие 24 часа)

TLE

СвежийSource: Space-Track

Эпоха: Sep 14, 2026, 22:40 UTC

1 66419U 25258H   26257.94454349 -.00000081  00000-0  93391-4 0  9991
2 66419  50.0027 333.4000 0000273 127.4208 232.6689 13.29329800 41672

Отслеживайте HULIANWANG DIGUI-103 в реальном времени с AllMySat

Download on the App Store